Location: Bittelbronn
(48.4454°N, 8.5870°E)
Time: 18:21:22
(UTC+00:00)

COSMOS 2251 DEB - Visible Passes

Search period start: 07 October 2024 00:00
Search period end: 17 October 2024 00:00
Orbit: 659 x 746 km, 74.0° (Epoch: 06 October)

Date Brightness Start Highest point End Pass type
(mag) Time Alt. Az. Time Alt. Az. Time Alt. Az.
07 Oct ? 02:26:08 30° N 02:26:08 30° N 02:28:40 10° NNE visible
07 Oct ? 04:05:02 12° NW 04:05:32 12° NW 04:07:35 10° NNW visible
08 Oct ? 01:30:44 17° NE 01:30:44 17° NE 01:31:57 10° NNE visible
08 Oct ? 03:09:38 21° NNW 03:09:38 21° NNW 03:12:12 10° N visible
09 Oct ? 02:14:13 22° N 02:14:13 22° N 02:15:59 10° NNE visible
09 Oct ? 03:53:06 11° NW 03:53:06 11° NW 03:54:13 10° NNW visible
10 Oct ? 01:18:44 13° NNE 01:18:44 13° NNE 01:19:20 10° NNE visible
10 Oct ? 02:57:37 17° NNW 02:57:37 17° NNW 02:59:21 10° N visible
11 Oct ? 02:02:07 16° N 02:02:07 16° N 02:03:13 10° NNE visible
12 Oct ? 01:06:35 10° NNE 01:06:35 10° NNE 01:06:38 10° NNE visible
12 Oct ? 02:45:28 13° NNW 02:45:28 13° NNW 02:46:25 10° N visible
13 Oct ? 01:49:54 12° N 01:49:54 12° N 01:50:23 10° N visible
14 Oct ? 02:33:11 11° N 02:33:11 11° N 02:33:22 10° N visible
